Wind_Speed
18 17 17 16 15 14 14 17 17 16 15 14 12 11 10 9 8 7 6 6 5 6 6 5 5 5 6 7 8 8 9 8 8 7 7 6 5 4 3 3 3 2 3 3 3 3 4 3 3
19 19 18 18 16 15 17 19 19 18 16 14 13 12 11 11 9 8 7 6 6 6 6 6 6 6 7 8 9 9 10 9 9 8 8 7 7 6 5 5 4 4 4 4 4 4 4 3 3
20 20 19 19 18 17 20 22 21 19 17 16 14 13 12 12 10 9 8 7 6 6 7 7 7 7 8 9 10 11 11 10 10 10 9 9 8 8 7 7 6 6 6 5 5 5 5 4 4
21 20 20 20 19 22 23 23 22 20 18 17 15 14 13 12 10 9 8 8 7 7 8 8 8 8 9 10 10 11 12 12 11 11 10 10 9 9 9 9 8 8 7 7 6 6 6 5 5
21 20 20 20 21 24 25 24 22 21 19 18 16 16 13 12 11 10 8 8 8 8 8 9 9 10 10 11 12 12 13 14 13 12 12 11 11 11 11 11 11 11 10 9 8 8 7 7 6
20 20 20 20 23 24 25 24 23 21 20 19 18 18 16 14 12 11 10 10 9 9 8 10 10 11 12 13 14 14 14 15 15 14 14 13 13 13 13 13 13 13 12 11 11 10 9 9 8
20 20 20 22 24 25 26 25 24 23 22 20 19 19 18 16 14 13 13 12 11 11 10 11 11 13 14 14 14 15 15 16 16 15 15 15 15 15 15 15 15 15 14 13 13 12 11 11 10
19 19 20 22 23 25 25 25 24 24 23 21 20 20 19 18 16 15 15 14 13 13 13 13 14 14 15 15 15 16 16 16 17 17 17 17 17 16 17 16 16 16 16 15 15 14 13 12 12
19 19 20 22 24 25 25 25 24 24 23 22 21 21 20 19 18 18 17 16 15 15 15 15 15 15 15 15 16 17 18 18 18 18 18 18 18 18 19 19 19 18 18 17 17 16 15 15 14
19 19 22 22 23 24 24 25 24 24 23 23 22 21 21 20 19 19 18 17 17 16 16 16 16 17 17 17 17 18 19 19 19 19 19 19 19 19 20 20 20 20 20 19 18 18 17 16 16
19 20 20 21 22 22 23 24 24 24 24 24 23 23 23 21 21 20 19 18 18 18 17 17 17 17 18 19 18 19 20 20 20 20 20 20 20 20 20 21 21 20 20 20 19 19 18 17 18
18 19 19 20 21 22 23 23 24 24 24 23 23 24 24 23 23 22 22 20 20 19 18 18 18 19 19 19 19 20 20 21 22 22 22 22 22 21 21 20 20 21 21 21 20 20 20 19 19
17 17 18 19 20 21 22 23 23 23 24 24 24 23 23 23 23 22 22 22 22 21 20 19 20 20 20 19 20 21 21 22 22 23 23 23 23 23 23 23 23 22 23 22 21 21 21 20 20
16 17 18 19 20 20 21 22 22 22 22 23 24 24 24 24 23 23 23 23 22 22 21 21 22 22 22 22 22 22 22 23 24 24 25 25 24 24 25 24 25 25 25 25 24 23 22 22 21
14 15 16 17 19 20 20 20 21 20 21 22 23 23 24 24 23 24 24 23 23 23 23 23 23 23 23 23 23 23 24 24 25 26 27 26 26 26 26 25 24 25 26 26 25 24 24 23 23
13 13 15 16 17 17 17 19 19 19 20 20 21 22 22 23 24 24 24 24 24 24 24 24 24 24 24 24 24 25 26 25 26 27 28 28 27 28 27 26 24 25 26 27 27 26 25 24 25
12 12 14 15 15 15 15 18 17 18 18 19 20 21 22 22 23 23 24 24 24 24 24 24 25 24 24 24 24 25 26 26 27 27 27 27 27 28 28 27 26 26 26 27 28 28 26 26 26
12 13 13 14 14 14 14 15 16 16 18 19 19 21 22 22 23 23 23 23 23 23 24 25 25 25 25 24 25 25 26 27 27 27 27 27 28 29 28 28 28 28 28 27 28 29 28 28 28
13 12 13 14 13 13 14 15 15 16 17 18 19 20 20 21 22 23 23 24 23 23 24 24 24 25 25 25 24 25 26 27 27 27 28 28 28 29 29 29 29 29 29 29 29 29 29 29 29
10 10 12 13 12 12 13 14 15 16 17 18 19 20 21 22 23 23 24 24 24 25 25 25 24 25 25 25 25 24 25 27 28 28 29 30 30 30 30 31 30 29 30 30 29 30 31 31 31
10 10 11 12 11 11 12 14 15 15 16 17 18 20 21 22 23 23 24 25 25 26 26 26 25 26 25 25 26 26 25 26 27 28 29 29 30 30 30 31 31 30 30 29 30 30 31 31 32
10 11 11 11 10 11 11 12 15 16 17 18 19 20 20 21 22 23 24 25 26 27 27 27 27 27 27 26 26 26 27 26 26 27 28 28 28 29 29 30 31 31 30 29 29 29 30 31 31
11 11 10 11 11 11 12 12 15 17 17 18 19 20 20 21 22 23 24 25 26 26 27 27 27 28 28 28 27 27 27 27 27 27 27 27 27 28 28 29 29 30 30 30 30 30 31 31 32
10 10 11 11 10 11 13 13 14 17 17 18 19 19 20 21 21 23 24 24 24 25 26 26 27 28 29 29 28 28 28 28 28 28 28 28 28 28 28 28 29 30 30 31 32 32 32 33 34
10 9 9 9 10 11 15 14 15 17 17 18 19 19 20 20 21 21 22 22 23 23 24 25 26 27 28 28 28 28 28 28 28 28 28 29 28 28 29 30 30 30 32 32 33 33 34 35 35
11 10 10 11 11 12 15 14 15 16 17 17 18 18 18 19 19 19 20 21 22 22 23 24 25 25 26 27 27 27 28 28 28 28 28 29 28 28 29 30 30 31 32 33 34 33 33 34 35
11 12 12 12 12 11 12 15 16 16 16 16 16 17 18 18 18 18 19 20 20 21 22 23 24 25 26 26 27 26 27 28 28 28 29 29 29 29 29 29 31 31 31 32 33 33 34 34 34
12 13 13 11 11 11 12 13 14 14 14 15 15 16 17 17 17 18 19 19 19 20 21 22 23 24 25 25 26 27 27 28 28 28 29 29 29 30 30 30 31 32 32 32 32 33 34 35 35
12 13 12 12 12 12 12 12 15 15 14 14 14 15 16 17 18 19 20 21 21 21 22 23 24 24 25 26 26 27 28 28 28 28 29 29 29 30 30 30 31 31 31 32 32 31 31 32 33
13 13 12 12 12 12 12 13 15 15 14 15 15 16 17 19 19 20 21 22 23 23 24 24 25 25 25 25 26 27 27 27 28 28 29 29 29 29 29 29 30 30 31 31 32 31 31 31 32
Wind_Direction
249 245 241 238 236 234 233 237 237 234 230 230 228 226 221 220 214 218 224 224 226 220 213 211 214 217 221 227 232 236 237 237 238 236 234 230 227 228 235 248 267 293 308 318 328 333 336 343 350
250 246 241 237 232 229 234 237 237 237 236 234 233 232 229 229 227 225 227 230 233 234 230 228 227 225 228 231 235 238 239 239 239 239 237 236 236 238 242 251 264 275 284 290 296 302 307 312 321
249 245 241 237 231 222 231 235 237 238 237 236 237 236 234 236 237 239 237 240 244 247 245 241 236 231 233 236 239 241 242 242 242 243 242 240 240 242 245 250 259 264 269 273 277 282 285 285 289
247 244 241 236 230 228 232 236 236 238 237 236 238 239 238 241 247 247 248 250 255 255 252 249 243 239 238 242 244 244 245 244 244 245 244 242 243 243 246 250 253 257 260 262 266 271 272 274 273
245 243 240 235 231 231 233 236 237 236 237 236 238 242 247 249 251 255 258 260 261 260 258 255 253 252 248 245 245 246 246 245 245 245 245 245 246 246 246 250 252 253 254 255 259 262 263 265 263
244 241 238 233 231 233 234 236 236 237 236 237 238 243 248 251 253 256 262 266 265 266 265 263 262 259 256 249 246 245 246 246 245 246 246 247 248 248 250 252 254 254 255 254 256 259 260 260 258
242 239 235 232 232 233 235 236 236 237 236 237 239 243 248 252 255 259 263 265 269 270 269 266 263 260 259 254 250 248 246 245 245 247 247 248 250 249 250 253 254 254 254 254 256 257 258 257 256
239 237 235 232 231 233 235 236 236 236 238 240 241 243 247 252 256 262 265 270 271 270 272 269 264 262 260 256 255 253 249 247 248 249 249 250 252 252 251 252 254 255 253 254 256 257 258 256 253
236 234 232 230 229 232 233 234 236 237 238 239 242 244 247 251 258 264 267 270 271 271 273 273 268 264 263 260 257 254 250 250 251 253 252 254 256 256 254 253 255 256 255 257 257 257 258 256 253
233 230 232 231 230 232 233 233 235 236 238 239 242 247 249 253 258 263 267 268 269 270 273 276 274 267 268 266 260 254 251 252 254 256 256 255 257 258 257 255 255 256 257 258 259 258 257 256 252
232 230 232 230 230 232 233 234 234 235 239 241 244 247 252 257 261 263 267 271 272 271 273 277 275 273 273 270 264 259 255 253 256 259 259 258 258 258 258 257 256 256 256 257 260 259 257 256 255
231 232 231 230 229 230 232 234 235 236 240 245 248 251 254 260 264 270 273 273 277 277 275 274 276 276 275 271 268 265 261 260 258 260 260 259 259 260 260 260 259 257 256 257 257 258 256 255 255
230 231 230 229 229 230 233 235 237 239 243 246 250 254 258 263 267 269 272 278 278 277 277 277 277 275 273 271 270 266 262 260 261 263 262 261 261 262 264 263 262 262 260 259 258 258 256 254 254
227 228 227 226 228 230 233 238 240 242 246 249 253 257 261 264 268 271 274 276 277 278 279 277 276 274 272 271 269 266 263 262 262 261 260 262 261 262 266 264 263 264 261 260 259 258 255 255 255
221 225 227 227 229 231 235 239 242 246 248 251 254 258 262 266 269 272 274 275 276 278 279 278 276 274 273 273 270 266 265 265 263 262 261 262 262 261 264 264 264 262 260 260 259 257 255 255 254
218 221 228 230 231 233 234 243 245 249 251 254 258 262 265 266 269 271 274 275 276 277 277 277 276 275 274 274 272 270 269 265 263 264 264 263 262 260 261 264 264 262 259 258 258 258 256 255 255
214 213 225 234 234 235 234 244 250 252 255 259 262 264 266 268 270 271 273 274 276 277 277 277 276 275 275 275 275 272 270 266 264 264 265 262 261 261 260 261 261 262 262 259 256 255 255 255 256
209 213 225 234 236 237 240 248 254 257 260 262 263 264 265 267 269 271 272 274 275 276 277 276 275 274 273 274 274 275 273 270 266 264 263 262 261 260 261 260 262 262 260 258 255 254 255 254 254
210 214 226 235 239 243 249 254 260 262 262 265 268 267 266 268 270 271 271 271 273 275 276 276 275 274 273 273 273 273 273 272 268 265 263 262 260 259 259 260 261 261 261 258 257 256 255 253 250
214 219 231 240 244 248 253 257 262 264 265 267 269 269 269 271 270 270 270 271 271 273 275 275 275 273 272 271 273 272 271 272 269 265 265 264 260 258 257 259 259 260 260 257 258 256 254 252 250
220 220 232 242 250 254 257 263 265 265 266 268 271 272 272 272 272 272 272 272 273 274 273 271 273 273 272 271 271 272 271 272 270 265 264 264 260 258 258 256 256 257 258 256 256 256 253 251 250
226 231 238 247 254 261 264 268 271 267 267 270 272 274 274 274 275 277 275 275 275 274 272 270 271 271 272 271 271 270 270 271 271 267 266 265 262 260 259 257 256 255 254 253 253 254 250 250 250
227 237 244 251 254 261 269 266 269 270 269 272 274 276 277 277 277 279 279 278 277 275 273 271 271 271 272 272 272 271 271 272 272 272 269 266 263 263 262 259 258 256 254 252 251 252 250 252 252
238 245 253 258 265 269 270 269 270 273 273 275 277 278 281 281 281 281 282 280 278 276 274 273 271 271 273 273 272 271 272 273 272 271 271 268 265 263 261 259 257 256 256 254 253 252 253 253 254
242 246 256 264 267 267 272 271 269 273 277 278 280 281 283 284 283 283 283 284 283 279 277 276 275 273 274 274 273 272 272 272 271 270 269 269 266 263 262 261 259 257 257 257 255 254 255 254 253
247 244 243 252 259 267 279 277 275 279 280 282 283 284 285 286 286 285 288 288 285 282 280 278 275 275 274 274 274 275 274 272 272 270 270 269 268 266 263 262 262 261 259 258 256 254 255 255 254
250 249 249 257 266 272 276 280 281 281 283 284 286 287 288 290 290 288 290 293 290 287 283 280 278 277 277 276 275 275 274 272 272 272 272 270 269 268 265 264 263 261 260 258 256 254 254 256 256
251 256 258 257 264 273 281 286 286 287 287 288 290 290 290 291 291 293 295 296 296 292 288 284 284 282 280 278 276 275 274 273 274 273 271 271 270 268 266 266 265 263 261 259 257 256 254 254 256
261 264 265 263 261 270 279 280 285 290 291 292 291 292 295 296 295 297 297 296 296 295 291 289 287 285 283 281 279 277 275 275 275 273 272 273 272 272 270 267 265 263 261 260 259 257 256 254 255
260 264 265 265 270 273 277 279 285 291 292 292 293 294 296 298 298 297 298 299 297 295 292 290 288 286 285 283 281 280 278 276 275 275 275 275 275 273 271 268 266 263 261 261 260 258 258 256 256
Height
5888 5889 5891 5893 5895 5897 5898 5897 5898 5899 5900 5901 5902 5903 5905 5905 5906 5909 5906 5904 5905 5905 5905 5905 5906 5906 5907 5907 5908 5908 5909 5909 5909 5909 5909 5909 5909 5910 5910 5910 5910 5910 5910 5910 5910 5909 5910 5909 5909
5885 5886 5888 5890 5893 5895 5895 5894 5895 5896 5898 5899 5900 5901 5903 5903 5903 5903 5903 5903 5903 5903 5903 5904 5904 5905 5905 5906 5906 5907 5907 5908 5908 5908 5908 5908 5908 5908 5908 5908 5908 5909 5909 5908 5908 5908 5908 5908 5908
5881 5882 5885 5887 5889 5892 5891 5890 5891 5893 5895 5897 5898 5899 5900 5901 5901 5901 5901 5901 5901 5901 5902 5902 5902 5903 5903 5904 5905 5905 5905 5906 5906 5906 5906 5907 5907 5907 5907 5907 5907 5907 5907 5907 5907 5907 5907 5907 5907
5877 5879 5882 5884 5885 5886 5886 5887 5888 5890 5893 5895 5896 5897 5898 5899 5899 5899 5899 5899 5899 5899 5899 5900 5900 5901 5901 5902 5903 5903 5903 5904 5904 5904 5905 5905 5905 5905 5905 5905 5905 5905 5906 5906 5906 5906 5906 5906 5906
5873 5875 5878 5880 5881 5881 5882 5883 5886 5888 5890 5892 5894 5895 5895 5896 5897 5897 5897 5897 5897 5897 5897 5898 5898 5899 5899 5899 5900 5900 5901 5901 5902 5902 5902 5903 5903 5903 5903 5903 5903 5903 5904 5904 5904 5904 5904 5904 5904
5869 5871 5874 5875 5876 5877 5879 5881 5883 5886 5888 5890 5892 5893 5893 5894 5894 5895 5895 5895 5895 5895 5895 5896 5896 5896 5896 5897 5897 5898 5898 5898 5899 5899 5899 5900 5900 5900 5900 5901 5901 5901 5901 5902 5902 5902 5902 5902 5902
5866 5868 5869 5871 5872 5874 5876 5878 5880 5883 5884 5887 5889 5890 5890 5891 5891 5892 5892 5893 5893 5893 5893 5893 5893 5893 5893 5894 5894 5895 5895 5896 5896 5896 5896 5897 5897 5897 5898 5898 5898 5899 5899 5899 5899 5899 5899 5900 5900
5861 5864 5865 5866 5868 5870 5872 5875 5877 5879 5881 5884 5886 5887 5887 5888 5888 5889 5890 5890 5890 5890 5890 5890 5890 5891 5891 5891 5891 5892 5892 5892 5893 5893 5893 5893 5894 5894 5894 5895 5895 5895 5896 5896 5896 5897 5897 5897 5897
5857 5861 5861 5863 5865 5866 5868 5871 5873 5876 5878 5880 5882 5883 5884 5885 5885 5886 5887 5887 5887 5887 5887 5888 5888 5888 5887 5887 5888 5888 5888 5889 5889 5889 5889 5890 5890 5890 5890 5891 5891 5892 5892 5893 5893 5894 5894 5894 5894
5853 5856 5857 5859 5861 5862 5865 5868 5870 5873 5875 5877 5878 5880 5880 5881 5882 5883 5883 5883 5883 5884 5884 5884 5884 5884 5884 5884 5883 5884 5884 5884 5885 5885 5885 5886 5886 5886 5886 5886 5886 5887 5888 5889 5889 5890 5890 5890 5890
5849 5851 5853 5855 5857 5859 5862 5864 5867 5869 5871 5874 5875 5877 5878 5878 5879 5879 5879 5879 5880 5880 5880 5880 5880 5880 5880 5879 5879 5879 5880 5880 5881 5881 5881 5881 5881 5882 5882 5882 5882 5883 5884 5884 5885 5886 5886 5886 5887
5846 5848 5850 5852 5854 5856 5858 5861 5863 5866 5868 5870 5872 5873 5874 5875 5875 5875 5876 5876 5876 5876 5876 5876 5876 5876 5875 5875 5875 5875 5875 5875 5875 5876 5876 5876 5877 5877 5878 5878 5878 5878 5879 5879 5880 5881 5882 5882 5883
5843 5845 5847 5849 5852 5854 5856 5858 5860 5863 5865 5867 5868 5869 5870 5871 5872 5872 5872 5872 5872 5872 5872 5872 5871 5871 5871 5871 5871 5871 5870 5870 5870 5871 5872 5872 5872 5872 5873 5873 5873 5873 5874 5875 5876 5876 5877 5878 5878
5840 5842 5844 5847 5849 5851 5853 5855 5858 5859 5861 5863 5864 5865 5866 5867 5867 5867 5867 5867 5867 5867 5867 5867 5867 5866 5866 5866 5866 5866 5865 5865 5865 5866 5866 5866 5866 5866 5867 5868 5868 5869 5869 5870 5870 5871 5872 5873 5874
5838 5841 5843 5845 5847 5849 5851 5853 5854 5856 5858 5859 5861 5861 5862 5862 5862 5862 5862 5862 5862 5862 5862 5861 5861 5861 5861 5861 5861 5860 5860 5860 5860 5860 5860 5860 5861 5861 5861 5862 5862 5862 5863 5864 5865 5866 5867 5868 5868
5837 5840 5842 5843 5844 5846 5851 5850 5852 5853 5854 5855 5856 5857 5857 5857 5857 5857 5857 5857 5857 5857 5856 5856 5856 5855 5855 5855 5855 5854 5854 5854 5854 5854 5854 5854 5854 5855 5855 5856 5856 5856 5857 5858 5859 5860 5861 5862 5863
5836 5839 5840 5841 5842 5844 5847 5847 5848 5849 5850 5851 5852 5852 5853 5853 5852 5852 5852 5852 5851 5851 5851 5850 5850 5849 5849 5849 5848 5848 5848 5847 5847 5847 5847 5847 5847 5848 5849 5849 5850 5850 5851 5852 5853 5854 5855 5856 5857
5835 5837 5838 5839 5840 5842 5844 5844 5845 5846 5847 5847 5847 5848 5848 5848 5847 5847 5847 5846 5846 5845 5845 5844 5843 5843 5843 5842 5842 5842 5841 5841 5840 5840 5840 5841 5841 5841 5842 5842 5843 5844 5845 5846 5846 5848 5849 5850 5851
5832 5834 5836 5837 5838 5840 5841 5841 5842 5843 5843 5843 5843 5843 5842 5843 5842 5842 5841 5841 5840 5840 5839 5838 5837 5837 5836 5836 5836 5835 5835 5834 5834 5834 5833 5833 5834 5834 5835 5836 5837 5837 5838 5839 5839 5841 5842 5843 5845
5830 5832 5834 5834 5835 5837 5838 5838 5839 5839 5839 5839 5838 5838 5838 5837 5837 5836 5835 5835 5834 5834 5833 5832 5831 5830 5830 5830 5829 5828 5828 5827 5827 5827 5826 5826 5827 5827 5828 5829 5830 5830 5831 5832 5833 5833 5835 5836 5838
5828 5831 5832 5832 5833 5834 5835 5836 5835 5835 5835 5835 5834 5833 5832 5832 5831 5830 5829 5828 5828 5827 5826 5826 5825 5824 5824 5823 5823 5822 5821 5821 5820 5820 5819 5819 5819 5820 5820 5821 5822 5822 5823 5824 5825 5826 5827 5828 5830
5827 5827 5829 5830 5831 5833 5833 5835 5832 5831 5831 5830 5829 5828 5827 5826 5825 5824 5823 5822 5821 5820 5819 5819 5818 5818 5817 5817 5816 5815 5815 5814 5814 5813 5813 5812 5812 5812 5812 5813 5814 5814 5815 5816 5817 5818 5819 5821 5822
5824 5825 5826 5827 5829 5830 5830 5831 5830 5827 5826 5826 5825 5824 5822 5821 5820 5818 5817 5816 5814 5813 5812 5812 5811 5811 5810 5810 5809 5809 5808 5807 5806 5806 5806 5806 5805 5805 5805 5805 5806 5806 5808 5809 5810 5811 5812 5813 5814
5821 5823 5824 5824 5826 5828 5827 5827 5827 5823 5822 5821 5820 5819 5817 5816 5814 5813 5811 5809 5808 5807 5805 5805 5804 5803 5803 5802 5802 5801 5801 5800 5799 5799 5798 5798 5798 5798 5798 5798 5798 5799 5800 5801 5802 5803 5804 5805 5806
5819 5821 5824 5825 5825 5825 5822 5822 5822 5819 5817 5816 5815 5814 5812 5810 5809 5807 5805 5803 5802 5800 5799 5798 5797 5797 5796 5795 5794 5794 5794 5793 5792 5791 5791 5790 5790 5791 5791 5791 5791 5791 5792 5793 5794 5795 5796 5797 5798
5816 5819 5822 5823 5822 5822 5818 5817 5817 5814 5812 5811 5810 5808 5807 5805 5803 5801 5800 5798 5796 5794 5793 5792 5791 5790 5789 5788 5787 5787 5786 5786 5785 5784 5784 5783 5783 5783 5783 5783 5783 5783 5784 5784 5785 5786 5787 5788 5789
5814 5815 5816 5817 5817 5817 5816 5813 5811 5809 5808 5807 5805 5804 5802 5800 5798 5796 5795 5793 5791 5789 5787 5786 5785 5784 5782 5781 5780 5779 5779 5778 5778 5777 5776 5776 5776 5775 5775 5775 5775 5775 5775 5776 5777 5778 5779 5780 5781
5811 5811 5812 5813 5813 5813 5813 5810 5808 5805 5804 5803 5801 5799 5798 5796 5794 5792 5790 5788 5786 5784 5782 5780 5779 5777 5776 5775 5774 5773 5772 5771 5770 5769 5769 5768 5768 5767 5767 5767 5767 5767 5767 5768 5769 5769 5770 5771 5772
5807 5807 5808 5809 5809 5809 5809 5810 5804 5802 5800 5799 5797 5795 5793 5791 5789 5787 5785 5783 5781 5778 5776 5774 5773 5771 5769 5768 5766 5765 5764 5763 5763 5762 5761 5760 5759 5759 5759 5759 5758 5759 5759 5759 5760 5761 5761 5763 5763
5803 5804 5804 5805 5805 5804 5804 5806 5800 5798 5796 5794 5793 5791 5789 5787 5784 5782 5780 5777 5775 5772 5770 5768 5766 5764 5762 5761 5759 5758 5757 5756 5755 5754 5753 5752 5751 5750 5750 5750 5750 5750 5751 5751 5752 5753 5753 5754 5755